Tracking 30923 objects as of 1-Jul-2025
HD Live streaming from Space Station
objects crossing your sky now

STARLINK-3594

Track STARLINK-3594 now!
10-day predictions
STARLINK-3594 is classified as:


NORAD ID: 51895
Int'l Code: 2022-022AV
Perigee: 545.9 km
Apogee: 547.8 km
Inclination: 53.2 °
Period: 95.4 minutes
Semi major axis: 6917 km
RCS: Unknown
Launch date: March 3, 2022
Source: United States (US)
Launch site: AIR FORCE EASTERN TEST RANGE (AFETR)
Your satellite tracking list
COSMOS 2251 DEB
Track 1 satellite(s)




NASA's NSSDC Master Catalog

Two Line Element Set (TLE):
1 51895U 22022AV  25181.88833457  .00000186  00000-0  29804-4 0  9991
2 51895  53.2186  49.5012 0001384  86.9883 273.1267 15.08841123185234
Source of the keplerian elements: AFSPC